Showing default

SECOR 3, 1208

Orbit data source: Space-Track

SECOR 3, 1208 is an American payload satellite in LEO that was launched on Tue, 09 Mar 1965 UTC via a THOR SLV-2 AGENA D launch vehicle from the Air Force Western Test Range (AFWTR). Payload-class satellites include a variety of spacecraft equipped with specific instruments for various scientific and technological missions. These include communications satellites like Starlink; space stations such as the ISS; scientific satellites like the Hubble; Earth observation satellites from companies like Planet Labs, Umbra, and HawkEye 360; GPS; miniature CubeSats for education and research; and military/defense satellites.

Loading next visibility...
Identifier
1208, 1965-016E
Orbit
LEO
Country
Flag of USUS
Related business
Manufacturer
ITT
Mission
Spacecraft
Bus & Motor
SECOR, Unknown motor
Mass
18 kg wet, 18 kg dry
Launch date (UTC)
1965-03-09 (61 years ago)
Launch vehicle
THOR SLV-2 AGENA D
Launch site
Air Force Western Test Range (AFWTR)
Object type
Payload
Rocket body
Debris
Shape & HBR
Unknown
Radar Cross Section
Medium (>0.1 m² and <1 m²)

Expand to show TLE details & history
Last TLE update: 7 hours ago

TLE from 7 hours ago
0 SECOR 3
1  1208U 65016E   25299.14562824  .00000074  00000-0  91758-4 0  9993
2  1208  70.0796 322.5742 0018756  25.5496  32.7902 13.96029133 86504
Epoch: 2025-10-26T03:29Z
TLE epoch observation values (Epoch: 2025-10-26T03:29:42.279Z)
Latitude
53.3618°
Longitude
-95.62296°
Altitude
904.222 km
Speed
7.411 km/s
True Right ascension
23h 26m 16s
True Declination
53° 12' 01"
Sunlit
Object was in full shadow at epoch
Visualization orbit readout
Latitude
Unknown
Longitude
Unknown
Altitude
Unknown
Speed
Unknown
Apparent Right ascension
Unknown
Apparent Declination
Unknown
Sunlit
N/A
Visualization observer readout
Local Sidereal Time
06:10:42
Azimuth
Unknown
Elevation
Unknown
Doppler factor
Unknown
Orbital elements
Apogee altitude
919.275 km
Perigee altitude
891.952 km
Semi-major axis
7,283.75 km
Eccentricity
0.00188
Inclination
70.0796°
RAAN
322.5742°
Arg. of periapsis
25.5496°
True anomaly
32.90683°
Mean anomaly
32.7902°
Eccentric anomaly
32.84849°
Mean motion
3.49149 °/min
Orbital period
103.11 mins
BSTAR
0.000091758
Loading maneuver chart data...
Computing Atmospheric mass density...
Loading historical data...
Loading historical data...
Loading historical data...
Loading historical data...
Loading historical data...
Loading historical data...
Loading historical data...

Documentation

Showing up to 5 results
|